STARLINK-4563 (53561 NORAD) Tracking and Keplerian Element Data

This shows tracking and keplerian element data for the satellite.

Feedback or suggestion? Click here.




ElementValue
Catalog53561
NameSTARLINK-4563
Epoch Orbit1437
Epoch Day324.54234995
Epoch Year2022
RAAN74.2339
Inclination53.2212
Eccentricity0.0001375
Argument of Perigee54.4706
Mean Anonmoly305.6415
Mean Motion15.08839978
Decay Rate2.04E-05
L11 53561U 22101AL 22324.54234995 .00002040 00000+0 14623-3 0 9994
L22 53561 53.2212 74.2339 0001375 54.4706 305.6415 15.08839978 14374



Live tracking and technical data element details for STARLINK-4563 (NORAD 53561). STARLINK-4563 can be tracked NOW for your location showing map with azimuth and elevation plus other details from your city location.







IsCatalogInMostPopularTable: catalog: 53561, numindb: 4
Update: records affected: 1



GetName: 53561 STARLINK-4563

Hit Count: updated at: Thu, 08 Dec 2022 19:01:53 GMT